Time,TemperatureF,DewpointF,PressureIn,WindDirection,WindDirectionDegrees,WindSpeedMPH,WindSpeedGustMPH,Humidity,HourlyPrecipIn,Conditions,Clouds,dailyrainin,SoftwareType,DateUTC
2013-03-01 00:02:00,37.0,35.0,-100.00,ENE,60,2.0,8.0,91,0.00,,,-99.99,,2013-03-01 05:02:00,
2013-03-01 00:11:00,36.0,34.0,-100.00,ENE,60,2.0,6.0,91,0.00,,,-99.99,,2013-03-01 05:11:00,
2013-03-01 00:22:00,36.0,34.0,-100.00,NE,35,2.0,4.0,91,0.00,,,-99.99,,2013-03-01 05:22:00,
2013-03-01 00:33:00,36.0,34.0,-100.00,NE,50,4.0,7.0,91,0.00,,,-99.99,,2013-03-01 05:33:00,
2013-03-01 00:42:00,36.0,34.0,-100.00,NE,40,1.0,4.0,91,0.00,,,-99.99,,2013-03-01 05:42:00,
2013-03-01 00:52:00,36.0,33.0,-100.00,NE,40,3.0,7.0,90,0.00,,,-99.99,,2013-03-01 05:52:00,
2013-03-01 01:02:00,36.0,33.0,-100.00,ENE,60,5.0,7.0,89,0.00,,,-99.99,,2013-03-01 06:02:00,
2013-03-01 01:12:00,36.0,33.0,-100.00,NNE,30,1.0,5.0,89,0.00,,,-99.99,,2013-03-01 06:12:00,
2013-03-01 01:22:00,36.0,33.0,-100.00,NNE,25,1.0,3.0,88,0.00,,,-99.99,,2013-03-01 06:22:00,
2013-03-01 01:32:00,36.0,33.0,-100.00,NE,35,1.0,3.0,88,0.00,,,-99.99,,2013-03-01 06:32:00,
2013-03-01 01:42:00,36.0,33.0,-100.00,North,10,1.0,4.0,88,0.00,,,-99.99,,2013-03-01 06:42:00,
2013-03-01 01:52:00,35.0,32.0,-100.00,East,80,1.0,3.0,88,0.00,,,-99.99,,2013-03-01 06:52:00,
2013-03-01 02:02:00,36.0,33.0,-100.00,East,90,1.0,3.0,88,0.00,,,-99.99,,2013-03-01 07:02:00,
2013-03-01 02:12:00,36.0,32.0,-100.00,ENE,60,1.0,3.0,88,0.00,,,-99.99,,2013-03-01 07:12:00,
2013-03-01 02:22:00,35.0,32.0,-100.00,NE,55,1.0,2.0,88,0.00,,,-99.99,,2013-03-01 07:22:00,
2013-03-01 02:32:00,35.0,32.0,-100.00,ENE,70,0.0,2.0,88,0.00,,,-99.99,,2013-03-01 07:32:00,
2013-03-01 02:42:00,35.0,32.0,-100.00,East,85,1.0,2.0,88,0.00,,,-99.99,,2013-03-01 07:42:00,
2013-03-01 02:52:00,35.0,32.0,-100.00,North,10,0.0,2.0,88,0.00,,,-99.99,,2013-03-01 07:52:00,
2013-03-01 03:02:00,35.0,32.0,-100.00,ESE,120,0.0,1.0,88,0.00,,,-99.99,,2013-03-01 08:02:00,
2013-03-01 03:12:00,35.0,32.0,-100.00,SSE,150,0.0,1.0,88,0.00,,,-99.99,,2013-03-01 08:12:00,
2013-03-01 03:22:00,35.0,32.0,-100.00,East,80,0.0,1.0,88,0.00,,,-99.99,,2013-03-01 08:22:00,
2013-03-01 03:32:00,35.0,32.0,-100.00,North,10,0.0,1.0,88,0.00,,,-99.99,,2013-03-01 08:32:00,
2013-03-01 03:43:00,35.0,32.0,-100.00,North,350,0.0,1.0,89,0.00,,,-99.99,,2013-03-01 08:43:00,
2013-03-01 03:53:00,35.0,32.0,-100.00,South,170,0.0,1.0,89,0.00,,,-99.99,,2013-03-01 08:53:00,
2013-03-01 04:02:00,35.0,32.0,-100.00,North,350,0.0,1.0,89,0.00,,,-99.99,,2013-03-01 09:02:00,
2013-03-01 04:12:00,35.0,32.0,-100.00,NE,55,0.0,1.0,89,0.00,,,-99.99,,2013-03-01 09:12:00,
2013-03-01 04:22:00,35.0,32.0,-100.00,NW,320,1.0,2.0,89,0.00,,,-99.99,,2013-03-01 09:22:00,
2013-03-01 04:32:00,35.0,32.0,-100.00,West,260,0.0,1.0,89,0.00,,,-99.99,,2013-03-01 09:32:00,
2013-03-01 04:42:00,35.0,32.0,-100.00,West,270,0.0,2.0,90,0.00,,,-99.99,,2013-03-01 09:42:00,
2013-03-01 04:52:00,35.0,32.0,-100.00,SSW,205,1.0,4.0,90,0.00,,,-99.99,,2013-03-01 09:52:00,
2013-03-01 05:02:00,35.0,32.0,-100.00,SW,225,0.0,2.0,90,0.00,,,-99.99,,2013-03-01 10:02:00,
2013-03-01 05:12:00,35.0,32.0,-100.00,North,350,1.0,2.0,90,0.00,,,-99.99,,2013-03-01 10:12:00,
2013-03-01 05:22:00,35.0,33.0,-100.00,NW,325,1.0,2.0,90,0.00,,,-99.99,,2013-03-01 10:22:00,
2013-03-01 05:32:00,35.0,32.0,-100.00,West,280,0.0,2.0,90,0.00,,,-99.99,,2013-03-01 10:32:00,
2013-03-01 05:42:00,34.0,31.0,-100.00,East,100,0.0,1.0,90,0.00,,,-99.99,,2013-03-01 10:42:00,
2013-03-01 05:52:00,34.0,31.0,-100.00,East,100,0.0,1.0,90,0.00,,,-99.99,,2013-03-01 10:52:00,
2013-03-01 06:02:00,34.0,31.0,-100.00,South,190,0.0,1.0,90,0.00,,,-99.99,,2013-03-01 11:02:00,
2013-03-01 06:12:00,33.0,31.0,-100.00,North,350,1.0,2.0,91,0.00,,,-99.99,,2013-03-01 11:12:00,
2013-03-01 06:23:00,33.0,31.0,-100.00,NNW,335,1.0,4.0,91,0.00,,,-99.99,,2013-03-01 11:23:00,
2013-03-01 06:32:00,32.0,30.0,-100.00,East,80,0.0,2.0,91,0.00,,,-99.99,,2013-03-01 11:32:00,
2013-03-01 06:42:00,33.0,31.0,-100.00,NNW,345,1.0,5.0,92,0.00,,,-99.99,,2013-03-01 11:42:00,
2013-03-01 06:52:00,32.0,30.0,-100.00,NE,45,0.0,2.0,92,0.00,,,-99.99,,2013-03-01 11:52:00,
2013-03-01 07:02:00,32.0,30.0,-100.00,North,10,1.0,3.0,92,0.00,,,-99.99,,2013-03-01 12:02:00,
2013-03-01 07:11:00,31.0,30.0,-100.00,NNE,30,0.0,2.0,93,0.00,,,-99.99,,2013-03-01 12:11:00,
2013-03-01 07:22:00,31.0,30.0,-100.00,NE,55,1.0,2.0,93,0.00,,,-99.99,,2013-03-01 12:22:00,
2013-03-01 07:32:00,31.0,30.0,-100.00,North,10,0.0,1.0,93,0.00,,,-99.99,,2013-03-01 12:32:00,
2013-03-01 07:42:00,32.0,30.0,-100.00,South,190,1.0,2.0,94,0.00,,,-99.99,,2013-03-01 12:42:00,
2013-03-01 07:52:00,33.0,31.0,-100.00,ESE,110,0.0,1.0,94,0.00,,,-99.99,,2013-03-01 12:52:00,
2013-03-01 08:01:00,34.0,33.0,-100.00,East,90,1.0,2.0,94,0.00,,,-99.99,,2013-03-01 13:01:00,
2013-03-01 08:12:00,35.0,34.0,-100.00,East,90,1.0,4.0,94,0.00,,,-99.99,,2013-03-01 13:12:00,
2013-03-01 08:22:00,36.0,34.0,-100.00,ENE,65,1.0,6.0,93,0.00,,,-99.99,,2013-03-01 13:22:00,
2013-03-01 08:32:00,36.0,34.0,-100.00,NW,305,1.0,6.0,92,0.00,,,-99.99,,2013-03-01 13:32:00,
2013-03-01 08:42:00,36.0,33.0,-100.00,ENE,65,1.0,6.0,90,0.00,,,-99.99,,2013-03-01 13:42:00,
2013-03-01 08:52:00,36.0,33.0,-100.00,NNE,15,2.0,5.0,88,0.00,,,-99.99,,2013-03-01 13:52:00,
2013-03-01 09:02:00,36.0,32.0,-100.00,ENE,65,2.0,7.0,86,0.00,,,-99.99,,2013-03-01 14:02:00,
2013-03-01 09:12:00,36.0,32.0,-100.00,NE,55,3.0,11.0,83,0.00,,,-99.99,,2013-03-01 14:12:00,
2013-03-01 09:22:00,36.0,31.0,-100.00,NNE,20,2.0,6.0,81,0.00,,,-99.99,,2013-03-01 14:22:00,
2013-03-01 09:32:00,36.0,31.0,-100.00,ENE,65,3.0,7.0,80,0.00,,,-99.99,,2013-03-01 14:32:00,
2013-03-01 09:42:00,37.0,31.0,-100.00,ENE,75,3.0,9.0,78,0.00,,,-99.99,,2013-03-01 14:42:00,
2013-03-01 09:52:00,37.0,31.0,-100.00,ENE,60,2.0,6.0,77,0.00,,,-99.99,,2013-03-01 14:52:00,
2013-03-01 10:02:00,37.0,30.0,-100.00,North,10,2.0,6.0,76,0.00,,,-99.99,,2013-03-01 15:02:00,
2013-03-01 10:11:00,38.0,30.0,-100.00,ENE,60,2.0,6.0,74,0.00,,,-99.99,,2013-03-01 15:11:00,
2013-03-01 10:21:00,38.0,30.0,-100.00,ENE,60,2.0,9.0,73,0.00,,,-99.99,,2013-03-01 15:21:00,
2013-03-01 10:32:00,38.0,30.0,-100.00,NE,45,3.0,7.0,72,0.00,,,-99.99,,2013-03-01 15:32:00,
2013-03-01 10:42:00,39.0,30.0,-100.00,NNE,15,3.0,7.0,71,0.00,,,-99.99,,2013-03-01 15:42:00,
2013-03-01 10:52:00,39.0,30.0,-100.00,East,85,2.0,7.0,70,0.00,,,-99.99,,2013-03-01 15:52:00,
2013-03-01 11:01:00,39.0,30.0,-100.00,NE,35,2.0,7.0,70,0.00,,,-99.99,,2013-03-01 16:01:00,
2013-03-01 11:11:00,39.0,30.0,-100.00,North,350,1.0,8.0,69,0.00,,,-99.99,,2013-03-01 16:11:00,
2013-03-01 11:22:00,39.0,30.0,-100.00,NE,45,1.0,4.0,69,0.00,,,-99.99,,2013-03-01 16:22:00,
2013-03-01 11:32:00,39.0,29.0,-100.00,North,0,4.0,9.0,67,0.00,,,-99.99,,2013-03-01 16:32:00,
2013-03-01 11:42:00,39.0,29.0,-100.00,ENE,60,2.0,7.0,67,0.00,,,-99.99,,2013-03-01 16:42:00,
2013-03-01 11:52:00,39.0,29.0,-100.00,ENE,60,2.0,6.0,67,0.00,,,-99.99,,2013-03-01 16:52:00,
2013-03-01 12:01:00,39.0,29.0,-100.00,North,0,2.0,7.0,65,0.00,,,-99.99,,2013-03-01 17:01:00,
2013-03-01 12:11:00,39.0,28.0,-100.00,North,5,6.0,10.0,62,0.00,,,-99.99,,2013-03-01 17:11:00,
2013-03-01 12:21:00,39.0,28.0,-100.00,NNW,340,4.0,9.0,62,0.00,,,-99.99,,2013-03-01 17:21:00,
2013-03-01 12:32:00,39.0,28.0,-100.00,NNE,20,2.0,7.0,63,0.00,,,-99.99,,2013-03-01 17:32:00,
2013-03-01 12:42:00,39.0,28.0,-100.00,East,90,1.0,4.0,63,0.00,,,-99.99,,2013-03-01 17:42:00,
2013-03-01 12:52:00,39.0,27.0,-100.00,North,355,3.0,7.0,61,0.00,,,-99.99,,2013-03-01 17:52:00,
2013-03-01 13:02:00,39.0,28.0,-100.00,ENE,65,2.0,6.0,62,0.00,,,-99.99,,2013-03-01 18:02:00,
2013-03-01 13:12:00,40.0,28.0,-100.00,North,355,2.0,6.0,61,0.00,,,-99.99,,2013-03-01 18:12:00,
2013-03-01 13:22:00,39.0,27.0,-100.00,NNW,345,4.0,12.0,60,0.00,,,-99.99,,2013-03-01 18:22:00,
2013-03-01 13:32:00,40.0,27.0,-100.00,North,0,3.0,9.0,60,0.00,,,-99.99,,2013-03-01 18:32:00,
2013-03-01 13:42:00,40.0,27.0,-100.00,NNW,340,3.0,11.0,60,0.00,,,-99.99,,2013-03-01 18:42:00,
2013-03-01 13:52:00,40.0,27.0,-100.00,NNW,340,7.0,14.0,59,0.00,,,-99.99,,2013-03-01 18:52:00,
2013-03-01 14:02:00,40.0,27.0,-100.00,North,5,4.0,11.0,60,0.00,,,-99.99,,2013-03-01 19:02:00,
2013-03-01 14:11:00,39.0,26.0,-100.00,North,355,4.0,12.0,59,0.00,,,-99.99,,2013-03-01 19:11:00,
2013-03-01 14:21:00,39.0,27.0,-100.00,North,350,4.0,14.0,59,0.00,,,-99.99,,2013-03-01 19:21:00,
2013-03-01 14:32:00,39.0,26.0,-100.00,NNW,335,4.0,10.0,59,0.00,,,-99.99,,2013-03-01 19:32:00,
2013-03-01 14:42:00,39.0,26.0,-100.00,NNE,15,3.0,16.0,59,0.00,,,-99.99,,2013-03-01 19:42:00,
2013-03-01 14:51:00,39.0,26.0,-100.00,NNW,345,6.0,11.0,58,0.00,,,-99.99,,2013-03-01 19:51:00,
2013-03-01 15:01:00,39.0,26.0,-100.00,North,5,4.0,9.0,59,0.00,,,-99.99,,2013-03-01 20:01:00,
2013-03-01 15:11:00,39.0,27.0,-100.00,NW,325,4.0,9.0,59,0.00,,,-99.99,,2013-03-01 20:11:00,
2013-03-01 15:21:00,39.0,26.0,-100.00,NE,35,4.0,11.0,60,0.00,,,-99.99,,2013-03-01 20:21:00,
2013-03-01 15:32:00,39.0,26.0,-100.00,NNE,30,4.0,10.0,61,0.00,,,-99.99,,2013-03-01 20:32:00,
2013-03-01 15:42:00,39.0,26.0,-100.00,NNE,25,2.0,10.0,60,0.00,,,-99.99,,2013-03-01 20:42:00,
2013-03-01 15:52:00,39.0,27.0,-100.00,NNE,20,4.0,7.0,60,0.00,,,-99.99,,2013-03-01 20:52:00,
2013-03-01 16:02:00,39.0,26.0,-100.00,NE,55,6.0,10.0,60,0.00,,,-99.99,,2013-03-01 21:02:00,
2013-03-01 16:11:00,39.0,27.0,-100.00,NNE,20,2.0,9.0,61,0.00,,,-99.99,,2013-03-01 21:11:00,
2013-03-01 16:21:00,38.0,27.0,-100.00,NE,50,2.0,7.0,61,0.00,,,-99.99,,2013-03-01 21:21:00,
2013-03-01 16:32:00,38.0,27.0,-100.00,ENE,65,2.0,7.0,61,0.00,,,-99.99,,2013-03-01 21:32:00,
2013-03-01 16:42:00,38.0,27.0,-100.00,NE,40,1.0,11.0,62,0.00,,,-99.99,,2013-03-01 21:42:00,
2013-03-01 16:52:00,38.0,26.0,-100.00,North,350,1.0,7.0,61,0.00,,,-99.99,,2013-03-01 21:52:00,
2013-03-01 17:01:00,38.0,26.0,-100.00,North,0,2.0,6.0,61,0.00,,,-99.99,,2013-03-01 22:01:00,
2013-03-01 17:12:00,38.0,26.0,-100.00,NNW,335,2.0,6.0,61,0.00,,,-99.99,,2013-03-01 22:12:00,
2013-03-01 17:22:00,38.0,26.0,-100.00,NE,55,1.0,9.0,62,0.00,,,-99.99,,2013-03-01 22:22:00,
2013-03-01 17:32:00,38.0,26.0,-100.00,North,10,1.0,5.0,62,0.00,,,-99.99,,2013-03-01 22:32:00,
2013-03-01 17:42:00,38.0,26.0,-100.00,NE,35,2.0,6.0,62,0.00,,,-99.99,,2013-03-01 22:42:00,
2013-03-01 17:51:00,38.0,26.0,-100.00,NE,50,2.0,6.0,61,0.00,,,-99.99,,2013-03-01 22:51:00,
2013-03-01 18:01:00,38.0,26.0,-100.00,ENE,75,1.0,4.0,62,0.00,,,-99.99,,2013-03-01 23:01:00,
2013-03-01 18:11:00,38.0,26.0,-100.00,NE,40,2.0,6.0,62,0.00,,,-99.99,,2013-03-01 23:11:00,
2013-03-01 18:21:00,38.0,26.0,-100.00,East,85,1.0,4.0,63,0.00,,,-99.99,,2013-03-01 23:21:00,
2013-03-01 18:32:00,38.0,26.0,-100.00,East,90,1.0,6.0,63,0.00,,,-99.99,,2013-03-01 23:32:00,
2013-03-01 18:42:00,38.0,26.0,-100.00,NNE,25,2.0,9.0,62,0.00,,,-99.99,,2013-03-01 23:42:00,
2013-03-01 18:52:00,38.0,26.0,-100.00,NNE,20,2.0,7.0,62,0.00,,,-99.99,,2013-03-01 23:52:00,
2013-03-01 19:02:00,37.0,26.0,-100.00,NE,55,2.0,6.0,62,0.00,,,-99.99,,2013-03-02 00:02:00,
2013-03-01 19:12:00,37.0,26.0,-100.00,NE,50,2.0,6.0,63,0.00,,,-99.99,,2013-03-02 00:12:00,
2013-03-01 19:22:00,37.0,26.0,-100.00,NE,40,2.0,6.0,64,0.00,,,-99.99,,2013-03-02 00:22:00,
2013-03-01 19:32:00,37.0,26.0,-100.00,ENE,70,2.0,7.0,64,0.00,,,-99.99,,2013-03-02 00:32:00,
2013-03-01 19:42:00,37.0,26.0,-100.00,NNE,30,1.0,6.0,64,0.00,,,-99.99,,2013-03-02 00:42:00,
2013-03-01 19:52:00,37.0,26.0,-100.00,North,5,1.0,6.0,64,0.00,,,-99.99,,2013-03-02 00:52:00,
2013-03-01 20:01:00,37.0,26.0,-100.00,East,80,1.0,4.0,63,0.00,,,-99.99,,2013-03-02 01:01:00,
2013-03-01 20:11:00,37.0,26.0,-100.00,NW,320,2.0,6.0,64,0.00,,,-99.99,,2013-03-02 01:11:00,
2013-03-01 20:21:00,37.0,26.0,-100.00,NNW,340,3.0,8.0,63,0.00,,,-99.99,,2013-03-02 01:21:00,
2013-03-01 20:32:00,37.0,26.0,-100.00,NW,325,3.0,10.0,64,0.00,,,-99.99,,2013-03-02 01:32:00,
2013-03-01 20:42:00,36.0,26.0,-100.00,East,85,2.0,9.0,65,0.00,,,-99.99,,2013-03-02 01:42:00,
2013-03-01 20:52:00,36.0,26.0,-100.00,North,10,2.0,11.0,65,0.00,,,-99.99,,2013-03-02 01:52:00,
2013-03-01 21:01:00,36.0,26.0,-100.00,North,355,4.0,9.0,65,0.00,,,-99.99,,2013-03-02 02:01:00,
2013-03-01 21:11:00,36.0,26.0,-100.00,ENE,70,1.0,6.0,67,0.00,,,-99.99,,2013-03-02 02:11:00,
2013-03-01 21:22:00,36.0,26.0,-100.00,NNE,30,2.0,7.0,66,0.00,,,-99.99,,2013-03-02 02:22:00,
2013-03-01 21:32:00,36.0,26.0,-100.00,ENE,75,3.0,7.0,67,0.00,,,-99.99,,2013-03-02 02:32:00,
2013-03-01 21:42:00,36.0,26.0,-100.00,NNW,340,4.0,7.0,67,0.00,,,-99.99,,2013-03-02 02:42:00,
2013-03-01 21:52:00,36.0,26.0,-100.00,NW,325,3.0,7.0,68,0.00,,,-99.99,,2013-03-02 02:52:00,
2013-03-01 22:02:00,36.0,27.0,-100.00,NE,50,2.0,7.0,69,0.00,,,-99.99,,2013-03-02 03:02:00,
2013-03-01 22:11:00,36.0,27.0,-100.00,NNE,30,2.0,5.0,69,0.00,,,-99.99,,2013-03-02 03:11:00,
2013-03-01 22:22:00,36.0,27.0,-100.00,ENE,60,4.0,8.0,69,0.00,,,-99.99,,2013-03-02 03:22:00,
2013-03-01 22:32:00,35.0,26.0,-100.00,North,5,2.0,9.0,69,0.00,,,-99.99,,2013-03-02 03:32:00,
2013-03-01 22:42:00,35.0,26.0,-100.00,North,0,3.0,7.0,68,0.00,,,-99.99,,2013-03-02 03:42:00,
2013-03-01 22:52:00,35.0,26.0,-100.00,North,5,2.0,7.0,69,0.00,,,-99.99,,2013-03-02 03:52:00,
2013-03-01 23:02:00,35.0,26.0,-100.00,NNW,345,4.0,8.0,69,0.00,,,-99.99,,2013-03-02 04:02:00,
2013-03-01 23:12:00,35.0,26.0,-100.00,North,350,2.0,7.0,68,0.00,,,-99.99,,2013-03-02 04:12:00,
2013-03-01 23:22:00,35.0,26.0,-100.00,NNW,345,3.0,9.0,68,0.00,,,-99.99,,2013-03-02 04:22:00,
2013-03-01 23:32:00,35.0,26.0,-100.00,North,355,4.0,8.0,68,0.00,,,-99.99,,2013-03-02 04:32:00,
2013-03-01 23:42:00,35.0,26.0,-100.00,North,0,2.0,6.0,68,0.00,,,-99.99,,2013-03-02 04:42:00,
2013-03-01 23:52:00,35.0,26.0,-100.00,NE,35,1.0,7.0,69,0.00,,,-99.99,,2013-03-02 04:52:00,